Wind_Speed
8 10 8 8 7 6 4 5 6 8 9 10 10 10 12 11 13 11 9 12 13 8 14 13 14 16 18 18 18 17 15 16 16 16 15 14 13 12 12 12 12 11 11
7 8 8 9 8 5 4 6 7 9 9 11 12 14 15 17 15 15 12 12 13 11 12 12 12 15 17 19 19 20 17 17 17 18 18 17 16 15 14 14 14 13 13
3 4 6 6 5 4 4 6 6 4 6 9 11 11 11 11 16 18 17 15 14 15 12 11 11 12 15 18 17 19 19 18 18 20 21 20 19 19 17 15 15 15 14
3 3 3 7 5 5 3 5 4 2 3 6 7 7 9 10 14 19 20 16 16 16 20 15 13 10 10 13 14 16 17 17 18 18 20 21 22 22 21 19 17 16 15
1 2 3 4 4 6 2 1 0 1 1 2 4 5 9 11 13 13 17 20 20 17 15 14 17 15 14 11 11 12 15 16 16 18 20 21 22 23 24 23 21 19 18
4 6 4 5 6 4 6 6 5 5 4 4 5 7 8 9 11 14 14 18 18 20 15 17 15 16 15 14 14 13 13 15 16 15 18 20 22 22 23 25 24 22 21
7 8 8 7 7 9 8 8 6 7 8 7 9 10 11 9 8 13 11 16 18 12 17 16 21 17 17 17 18 18 20 19 17 17 17 17 21 23 22 23 25 25 24
8 8 7 10 9 8 8 9 9 9 10 8 10 13 8 9 6 4 9 12 12 13 14 14 17 20 21 20 19 22 24 19 21 20 17 18 18 21 22 23 23 25 26
10 11 8 9 9 11 11 10 11 11 11 9 10 9 6 4 8 11 8 10 10 14 16 16 13 15 22 22 22 24 24 23 25 26 23 19 18 20 21 22 23 23 24
4 5 7 12 13 13 13 12 11 13 16 12 13 11 13 14 17 13 11 11 15 9 12 15 17 19 21 21 25 22 20 27 28 23 25 25 20 19 22 22 23 24 23
5 4 7 8 10 15 16 14 13 13 15 18 16 15 16 17 17 19 24 19 15 14 15 12 15 13 16 17 24 22 22 25 26 25 23 25 22 19 21 22 23 24 24
6 3 3 9 16 15 11 12 13 14 15 16 17 15 15 17 18 17 22 23 22 19 12 10 9 12 17 22 22 22 19 28 27 24 26 21 22 21 20 22 24 24 24
10 8 8 12 14 14 11 10 11 11 11 14 15 13 14 16 17 17 18 21 23 23 22 18 17 14 16 18 20 16 10 18 23 27 23 19 19 20 21 24 25 26 25
11 12 13 14 15 15 14 14 13 12 12 13 13 14 15 16 16 17 17 19 21 21 22 19 18 15 13 11 12 18 22 17 15 28 23 17 18 19 23 23 27 28 26
13 14 16 16 16 17 18 19 17 15 15 14 13 12 13 13 13 13 14 17 17 21 26 24 18 14 12 11 12 16 17 13 9 14 17 18 20 18 19 22 26 29 28
12 12 12 12 12 12 14 16 18 18 18 16 16 17 15 14 12 12 12 11 14 17 21 24 22 19 15 18 16 15 15 17 11 14 16 21 22 20 21 19 21 26 28
6 6 5 5 5 5 7 9 10 12 14 14 16 17 17 17 15 12 12 10 10 14 16 23 23 22 21 22 21 18 17 16 20 19 17 20 24 20 20 22 22 21 23
4 3 3 2 3 6 7 7 7 8 9 10 11 14 15 15 15 14 14 12 10 10 13 16 18 20 21 18 19 21 20 22 23 20 21 22 21 20 24 22 24 24 20
3 3 2 4 6 7 7 8 9 11 12 13 14 15 15 16 16 16 15 16 15 11 12 14 15 16 18 19 18 19 18 18 21 24 21 22 22 21 20 23 25 25 25
4 4 0 2 4 8 9 9 10 10 9 10 9 9 9 9 11 10 9 11 14 15 14 15 15 16 16 15 16 17 18 18 19 17 20 20 21 20 21 19 22 21 19
6 5 5 6 8 11 10 6 6 7 7 6 6 8 8 8 7 6 10 12 13 13 11 13 16 17 18 18 18 18 19 19 20 21 21 20 21 22 23 23 22 27 26
3 2 4 4 6 7 11 11 10 8 7 9 8 7 7 9 9 9 12 13 13 15 16 16 16 16 16 17 18 19 19 19 20 17 15 12 14 14 17 23 23 18 21
2 2 3 3 3 7 7 9 10 11 11 10 9 10 10 11 12 13 12 12 12 13 15 14 14 15 15 14 14 13 13 14 14 12 15 20 18 20 17 19 20 22 23
2 3 3 1 5 6 7 9 12 11 11 10 9 11 11 13 14 15 14 14 12 12 10 10 12 14 15 15 11 10 12 13 12 9 10 15 12 14 13 14 17 18 21
3 4 1 3 4 6 7 11 13 15 14 10 9 11 13 15 12 12 12 12 11 9 9 10 11 12 13 14 12 13 13 11 9 6 9 10 11 14 13 11 11 12 14
5 5 2 1 4 5 8 11 14 18 18 11 7 10 13 13 12 10 9 11 11 11 11 8 6 5 7 8 9 8 9 9 8 4 4 11 11 14 12 11 7 10 15
Wind_Direction
218 194 181 170 173 186 191 205 219 220 227 236 241 232 234 230 233 233 251 217 233 249 247 253 251 240 237 241 237 235 235 236 236 234 234 233 231 229 226 226 226 224 223
211 196 203 199 187 189 206 215 257 260 253 249 251 255 251 231 235 240 250 239 240 256 259 249 259 259 243 245 246 243 241 245 242 243 240 240 236 234 235 233 234 233 232
109 134 176 206 210 195 232 244 234 255 247 249 247 244 241 235 246 242 249 251 252 255 259 254 265 264 245 245 250 246 249 249 247 246 244 242 241 238 236 238 236 235 238
152 159 198 207 210 196 212 233 243 213 204 222 223 217 219 227 231 236 243 247 254 259 262 256 251 257 251 241 243 251 251 253 250 247 244 248 245 241 240 239 241 242 240
138 173 188 198 214 246 242 28 78 305 264 232 246 227 219 226 233 233 234 239 250 251 252 254 244 248 250 254 248 244 250 251 251 250 248 248 248 246 245 243 241 242 242
229 247 249 263 240 237 242 254 288 280 255 268 275 264 259 254 253 248 240 244 244 246 247 247 249 246 252 252 258 259 252 251 252 251 249 247 248 248 249 247 242 240 241
238 242 250 270 257 264 256 247 274 285 261 280 289 282 287 286 284 245 267 255 249 266 251 258 246 253 257 260 256 256 253 254 256 250 252 250 249 248 248 248 245 242 241
246 244 255 267 274 283 282 268 266 276 281 273 279 313 304 302 283 237 284 268 281 256 247 258 251 251 257 260 264 256 257 273 256 252 258 251 248 248 249 248 245 243 243
243 241 246 274 274 274 257 262 266 275 277 270 267 281 299 299 292 304 241 287 274 265 257 258 260 251 247 244 251 256 254 260 258 258 251 254 250 247 247 249 249 245 243
215 213 264 287 268 277 280 269 269 274 272 270 268 268 267 277 300 301 293 287 303 278 284 251 264 260 253 256 262 263 259 260 247 253 248 250 252 251 250 247 248 247 242
245 271 249 262 288 285 279 278 266 270 272 282 279 282 279 284 285 285 291 295 294 295 289 286 233 286 267 266 260 267 271 265 254 254 246 241 251 251 249 249 247 246 245
217 225 195 257 259 268 274 272 267 263 268 275 279 278 281 289 285 288 291 295 298 300 292 285 280 276 270 278 274 282 268 287 257 245 246 238 238 252 250 249 248 246 244
219 224 219 236 250 263 275 271 269 277 266 264 269 275 278 281 288 289 289 293 295 295 293 288 287 287 286 277 281 294 298 292 265 248 248 241 247 247 255 250 249 248 244
245 247 262 269 263 263 267 273 275 271 270 265 269 280 285 287 283 282 281 281 292 292 293 292 293 287 287 276 282 292 287 291 278 234 249 240 250 254 256 253 250 249 248
274 277 279 280 277 272 268 269 272 270 267 269 269 270 276 285 287 286 287 285 284 286 290 289 297 295 292 280 286 283 296 275 244 246 250 260 263 259 260 254 245 246 248
276 277 279 281 279 274 273 272 267 265 266 268 272 272 273 276 282 288 291 289 280 278 276 284 294 295 294 287 295 277 288 248 239 258 269 259 260 257 262 266 256 248 248
284 286 290 299 309 303 286 278 283 280 279 277 272 273 274 275 277 285 291 293 294 289 289 284 288 292 288 287 287 280 274 269 256 266 256 260 263 262 264 259 256 253 252
290 295 324 346 319 319 321 322 321 312 303 295 287 281 280 278 279 274 278 288 298 302 301 298 294 294 289 286 289 277 273 271 273 272 271 268 266 261 256 251 251 248 250
290 296 313 348 335 332 317 315 315 315 313 310 308 304 298 289 286 282 280 280 287 302 303 305 303 298 294 295 286 282 283 278 277 277 275 270 268 267 252 251 250 247 250
263 274 342 287 289 311 303 313 315 320 324 323 323 330 334 335 327 306 295 303 298 298 299 298 300 297 292 291 293 294 286 282 280 277 272 271 267 260 258 263 241 237 257
249 257 245 259 290 302 320 6 353 341 338 338 331 333 344 340 329 339 323 309 308 308 312 309 302 301 296 287 286 289 288 289 288 286 282 280 270 258 252 251 244 264 248
285 113 35 6 355 5 18 25 12 6 347 334 334 337 343 340 329 316 309 299 299 304 299 294 301 312 306 297 293 287 291 293 291 284 285 270 265 269 271 256 256 253 255
27 21 9 348 357 345 18 18 11 7 348 332 316 320 319 319 319 317 312 309 302 303 301 288 289 299 305 312 302 295 292 293 290 289 281 275 270 271 270 262 262 263 264
271 183 179 213 313 335 352 354 354 354 347 334 316 302 308 311 313 320 319 323 327 317 306 294 291 299 297 296 278 289 295 299 297 298 291 296 297 282 277 265 262 266 264
1 199 220 283 305 327 333 347 348 348 345 329 309 295 297 308 317 325 329 327 334 328 315 310 310 306 312 305 288 276 274 281 298 310 310 298 297 296 295 294 285 288 272
96 114 140 256 279 308 314 328 332 337 340 339 321 303 303 301 313 319 329 332 333 347 342 333 324 316 306 320 351 326 295 285 292 337 353 328 307 318 315 302 277 275 291
Height
1562 1563 1563 1563 1564 1565 1565 1564 1564 1565 1565 1566 1566 1567 1568 1569 1569 1569 1569 1569 1570 1570 1571 1570 1570 1571 1573 1575 1576 1576 1577 1579 1580 1581 1582 1583 1584 1584 1584 1584 1585 1586 1587
1563 1562 1563 1564 1563 1564 1564 1563 1563 1563 1564 1563 1562 1562 1563 1565 1566 1566 1566 1566 1566 1568 1568 1568 1569 1570 1571 1573 1575 1576 1576 1576 1577 1579 1581 1581 1582 1582 1583 1583 1583 1584 1585
1564 1563 1563 1563 1563 1563 1563 1562 1561 1560 1560 1559 1559 1559 1560 1561 1562 1562 1563 1564 1565 1565 1565 1567 1569 1570 1570 1571 1571 1573 1573 1574 1574 1575 1578 1579 1579 1580 1580 1581 1582 1582 1583
1563 1562 1562 1562 1563 1562 1561 1561 1561 1559 1559 1558 1557 1557 1558 1559 1559 1558 1559 1562 1562 1562 1563 1565 1567 1567 1567 1565 1567 1569 1569 1571 1571 1571 1573 1575 1576 1578 1578 1578 1579 1580 1580
1563 1562 1562 1562 1562 1563 1563 1562 1560 1560 1558 1557 1556 1556 1556 1556 1556 1557 1556 1557 1558 1558 1559 1562 1562 1562 1564 1565 1565 1565 1566 1566 1567 1568 1569 1570 1572 1574 1575 1576 1576 1577 1578
1561 1561 1562 1561 1560 1560 1561 1562 1561 1558 1557 1556 1555 1554 1554 1554 1552 1553 1552 1553 1553 1554 1556 1558 1559 1560 1561 1563 1563 1562 1561 1562 1563 1563 1563 1564 1566 1569 1570 1572 1573 1574 1575
1559 1560 1561 1561 1561 1559 1558 1559 1559 1558 1556 1555 1554 1553 1551 1550 1549 1550 1549 1548 1549 1550 1552 1554 1554 1556 1558 1559 1557 1557 1557 1558 1560 1559 1559 1560 1561 1563 1565 1567 1568 1570 1571
1557 1557 1558 1559 1560 1559 1559 1558 1558 1557 1555 1554 1553 1551 1549 1548 1545 1547 1547 1546 1546 1547 1548 1550 1548 1551 1553 1555 1554 1554 1553 1556 1557 1558 1557 1557 1557 1559 1560 1562 1564 1565 1566
1554 1555 1555 1555 1556 1556 1556 1555 1555 1553 1553 1553 1552 1552 1550 1547 1545 1544 1545 1545 1545 1545 1546 1547 1545 1546 1545 1545 1547 1546 1548 1551 1552 1551 1552 1553 1553 1554 1555 1557 1559 1560 1561
1553 1551 1551 1549 1550 1552 1552 1552 1550 1550 1549 1550 1549 1549 1549 1548 1546 1542 1542 1542 1542 1543 1542 1541 1543 1543 1542 1541 1541 1541 1542 1543 1543 1544 1545 1548 1550 1549 1551 1552 1555 1556 1556
1551 1550 1550 1548 1547 1548 1548 1548 1547 1546 1546 1546 1547 1545 1545 1545 1543 1541 1537 1538 1539 1540 1540 1541 1540 1538 1536 1537 1536 1536 1537 1539 1539 1533 1539 1540 1544 1544 1545 1547 1549 1551 1552
1549 1549 1549 1548 1548 1547 1545 1544 1544 1544 1543 1542 1543 1541 1540 1542 1541 1540 1537 1534 1533 1535 1536 1536 1536 1535 1532 1532 1531 1530 1532 1533 1534 1533 1535 1535 1537 1539 1540 1542 1544 1546 1547
1548 1547 1549 1550 1548 1544 1542 1541 1544 1541 1540 1540 1539 1537 1537 1537 1538 1536 1535 1532 1530 1530 1530 1531 1532 1531 1531 1528 1527 1525 1523 1520 1523 1526 1528 1529 1531 1532 1534 1537 1539 1542 1542
1545 1545 1545 1544 1543 1542 1539 1538 1538 1537 1537 1537 1535 1532 1532 1533 1533 1532 1532 1530 1528 1526 1527 1527 1528 1528 1526 1526 1523 1519 1518 1517 1515 1518 1522 1524 1526 1527 1530 1532 1534 1536 1537
1542 1541 1540 1538 1537 1535 1534 1533 1533 1533 1533 1532 1530 1530 1530 1529 1529 1528 1528 1527 1526 1523 1522 1522 1523 1522 1522 1521 1520 1517 1516 1515 1514 1517 1520 1520 1522 1524 1526 1526 1528 1531 1532
1539 1537 1535 1533 1532 1531 1530 1529 1529 1528 1528 1527 1526 1526 1526 1526 1525 1524 1523 1522 1521 1521 1520 1518 1518 1518 1519 1517 1516 1514 1514 1513 1513 1513 1513 1514 1518 1520 1522 1522 1522 1524 1525
1536 1533 1531 1530 1529 1528 1527 1527 1525 1523 1523 1523 1523 1522 1522 1522 1521 1520 1518 1517 1517 1517 1516 1514 1513 1513 1512 1512 1512 1511 1510 1510 1510 1510 1511 1511 1513 1515 1514 1516 1517 1518 1519
1533 1531 1530 1529 1528 1527 1525 1522 1521 1521 1520 1519 1519 1518 1517 1516 1516 1515 1513 1513 1513 1513 1512 1510 1509 1508 1507 1507 1505 1504 1505 1505 1505 1505 1506 1507 1508 1507 1507 1508 1510 1511 1512
1530 1529 1528 1527 1526 1525 1522 1520 1519 1518 1517 1515 1514 1513 1512 1510 1509 1509 1509 1509 1509 1510 1509 1507 1505 1505 1502 1501 1500 1499 1499 1499 1498 1499 1499 1500 1500 1501 1502 1501 1501 1503 1505
1528 1527 1527 1526 1525 1523 1521 1519 1518 1517 1515 1513 1510 1509 1508 1506 1504 1503 1504 1504 1505 1505 1505 1505 1503 1502 1500 1499 1497 1495 1495 1495 1494 1494 1494 1494 1494 1494 1495 1495 1496 1497 1499
1526 1526 1526 1525 1524 1522 1519 1518 1517 1515 1512 1510 1508 1507 1505 1503 1501 1501 1501 1501 1501 1501 1501 1501 1500 1498 1495 1494 1493 1492 1491 1490 1490 1489 1488 1487 1486 1488 1489 1489 1489 1490 1490
1524 1524 1524 1523 1522 1521 1518 1517 1516 1514 1512 1509 1507 1505 1504 1502 1501 1500 1500 1499 1499 1497 1497 1496 1495 1493 1491 1489 1488 1487 1487 1486 1485 1486 1484 1483 1481 1481 1482 1483 1484 1484 1484
1522 1522 1522 1522 1521 1520 1518 1517 1515 1513 1511 1509 1506 1504 1503 1501 1499 1498 1496 1495 1494 1493 1491 1490 1489 1489 1487 1486 1485 1483 1481 1480 1480 1480 1478 1476 1477 1476 1477 1476 1476 1477 1477
1520 1520 1520 1520 1519 1518 1517 1515 1513 1512 1510 1508 1505 1502 1501 1498 1496 1494 1492 1491 1489 1488 1487 1486 1484 1483 1481 1481 1480 1479 1478 1477 1476 1476 1475 1473 1472 1471 1470 1471 1471 1471 1471
1517 1517 1518 1517 1517 1516 1514 1513 1511 1510 1508 1505 1503 1501 1499 1496 1495 1493 1490 1488 1487 1486 1485 1483 1482 1480 1479 1477 1476 1476 1475 1474 1473 1473 1473 1471 1470 1467 1467 1467 1466 1465 1463
1516 1517 1516 1516 1514 1514 1513 1511 1509 1507 1505 1503 1501 1499 1497 1495 1493 1491 1489 1487 1486 1484 1483 1482 1481 1479 1477 1475 1473 1472 1472 1472 1471 1471 1470 1469 1467 1466 1463 1462 1461 1461 1460